Time,TemperatureF,DewpointF,PressureIn,WindDirection,WindDirectionDegrees,WindSpeedMPH,WindSpeedGustMPH,Humidity,HourlyPrecipIn,Conditions,Clouds,dailyrainin,SolarRadiationWatts/m^2,SoftwareType,DateUTC
2013-02-18 00:02:00,-6.0,-12.0,-100.00,West,269,0.0,0.0,73,0.00,,,0.00,0.000000,,2013-02-18 09:02:00,
2013-02-18 00:11:00,-6.0,-12.0,-100.00,West,269,0.0,0.0,73,0.00,,,0.00,0.000000,,2013-02-18 09:11:00,
2013-02-18 00:22:00,-6.0,-12.0,-100.00,West,269,0.0,0.0,73,0.00,,,0.00,0.000000,,2013-02-18 09:22:00,
2013-02-18 00:52:00,-7.0,-14.0,-100.00,West,268,0.0,0.0,70,0.00,,,0.00,0.000000,,2013-02-18 09:52:00,
2013-02-18 01:01:00,-7.0,-14.0,-100.00,West,268,0.0,0.0,70,0.00,,,0.00,0.000000,,2013-02-18 10:01:00,
2013-02-18 01:11:00,-7.0,-14.0,-100.00,West,268,0.0,0.0,70,0.00,,,0.00,0.000000,,2013-02-18 10:11:00,
2013-02-18 01:21:00,-7.0,-14.0,-100.00,West,268,0.0,0.0,70,0.00,,,0.00,0.000000,,2013-02-18 10:21:00,
2013-02-18 01:52:00,-10.0,-18.0,-100.00,WSW,246,0.0,0.0,68,0.00,,,0.00,0.000000,,2013-02-18 10:52:00,
2013-02-18 02:01:00,-10.0,-18.0,-100.00,WSW,246,0.0,0.0,68,0.00,,,0.00,0.000000,,2013-02-18 11:01:00,
2013-02-18 02:11:00,-10.0,-18.0,-100.00,WSW,246,0.0,0.0,68,0.00,,,0.00,0.000000,,2013-02-18 11:11:00,
2013-02-18 02:21:00,-10.0,-18.0,-100.00,WSW,246,0.0,0.0,68,0.00,,,0.00,0.000000,,2013-02-18 11:21:00,
2013-02-18 02:53:00,-14.0,-21.0,-100.00,SSW,207,0.0,0.0,71,0.00,,,0.00,0.000000,,2013-02-18 11:53:00,
2013-02-18 03:02:00,-14.0,-21.0,-100.00,SSW,207,0.0,0.0,71,0.00,,,0.00,0.000000,,2013-02-18 12:02:00,
2013-02-18 03:11:00,-14.0,-21.0,-100.00,SSW,207,0.0,0.0,71,0.00,,,0.00,0.000000,,2013-02-18 12:11:00,
2013-02-18 03:21:00,-14.0,-21.0,-100.00,SSW,207,0.0,0.0,71,0.00,,,0.00,0.000000,,2013-02-18 12:21:00,
2013-02-18 03:53:00,-15.0,-21.0,-100.00,South,185,0.0,0.0,72,0.00,,,0.00,0.000000,,2013-02-18 12:53:00,
2013-02-18 04:02:00,-15.0,-21.0,-100.00,South,185,0.0,0.0,72,0.00,,,0.00,0.000000,,2013-02-18 13:02:00,
2013-02-18 04:11:00,-15.0,-21.0,-100.00,South,185,0.0,0.0,72,0.00,,,0.00,0.000000,,2013-02-18 13:11:00,
2013-02-18 04:22:00,-15.0,-21.0,-100.00,South,185,0.0,0.0,72,0.00,,,0.00,0.000000,,2013-02-18 13:22:00,
2013-02-18 04:53:00,-17.0,-24.0,-100.00,East,84,0.0,0.0,69,0.00,,,0.00,0.000000,,2013-02-18 13:53:00,
2013-02-18 05:02:00,-17.0,-24.0,-100.00,East,84,0.0,0.0,69,0.00,,,0.00,0.000000,,2013-02-18 14:02:00,
2013-02-18 05:11:00,-17.0,-24.0,-100.00,East,84,0.0,0.0,69,0.00,,,0.00,0.000000,,2013-02-18 14:11:00,
2013-02-18 05:21:00,-17.0,-24.0,-100.00,East,84,0.0,0.0,69,0.00,,,0.00,0.000000,,2013-02-18 14:21:00,
2013-02-18 05:53:00,-21.0,-28.0,-100.00,ESE,103,0.0,0.0,67,0.00,,,0.00,0.000000,,2013-02-18 14:53:00,
2013-02-18 06:02:00,-21.0,-28.0,-100.00,ESE,103,0.0,0.0,67,0.00,,,0.00,0.000000,,2013-02-18 15:02:00,
2013-02-18 06:11:00,-21.0,-28.0,-100.00,ESE,103,0.0,0.0,67,0.00,,,0.00,0.000000,,2013-02-18 15:11:00,
2013-02-18 06:21:00,-21.0,-28.0,-100.00,ESE,103,0.0,0.0,67,0.00,,,0.00,0.000000,,2013-02-18 15:21:00,
2013-02-18 06:52:00,-26.0,-35.0,-100.00,East,98,0.0,0.0,62,0.00,,,0.00,0.000000,,2013-02-18 15:52:00,
2013-02-18 07:02:00,-26.0,-35.0,-100.00,East,98,0.0,0.0,62,0.00,,,0.00,0.000000,,2013-02-18 16:02:00,
2013-02-18 07:11:00,-26.0,-35.0,-100.00,East,98,0.0,0.0,62,0.00,,,0.00,0.000000,,2013-02-18 16:11:00,
2013-02-18 07:21:00,-26.0,-35.0,-100.00,East,98,0.0,0.0,62,0.00,,,0.00,0.000000,,2013-02-18 16:21:00,
2013-02-18 07:53:00,-25.0,-33.0,-100.00,East,87,0.0,0.0,63,0.00,,,0.00,0.000000,,2013-02-18 16:53:00,
2013-02-18 08:03:00,-25.0,-33.0,-100.00,East,87,0.0,0.0,63,0.00,,,0.00,0.000000,,2013-02-18 17:03:00,
2013-02-18 08:11:00,-25.0,-33.0,-100.00,East,87,0.0,0.0,63,0.00,,,0.00,0.000000,,2013-02-18 17:11:00,
2013-02-18 08:21:00,-25.0,-33.0,-100.00,East,87,0.0,0.0,63,0.00,,,0.00,0.000000,,2013-02-18 17:21:00,
2013-02-18 08:53:00,-30.0,-39.0,-100.00,East,99,0.0,0.0,59,0.00,,,0.00,1.000000,,2013-02-18 17:53:00,
2013-02-18 09:02:00,-30.0,-39.0,-100.00,East,99,0.0,0.0,59,0.00,,,0.00,1.000000,,2013-02-18 18:02:00,
2013-02-18 09:53:00,-30.0,-40.0,-100.00,East,92,0.0,0.0,58,0.00,,,0.00,7.000000,,2013-02-18 18:53:00,
2013-02-18 10:02:00,-30.0,-40.0,-100.00,East,92,0.0,0.0,58,0.00,,,0.00,7.000000,,2013-02-18 19:02:00,
2013-02-18 10:53:00,-23.0,-32.0,-100.00,WSW,249,0.0,0.0,61,0.00,,,0.00,57.000000,,2013-02-18 19:53:00,
2013-02-18 11:02:00,-23.0,-32.0,-100.00,WSW,249,0.0,0.0,61,0.00,,,0.00,57.000000,,2013-02-18 20:02:00,
2013-02-18 11:12:00,-23.0,-32.0,-100.00,WSW,249,0.0,0.0,61,0.00,,,0.00,57.000000,,2013-02-18 20:12:00,
2013-02-18 11:21:00,-23.0,-32.0,-100.00,WSW,249,0.0,0.0,61,0.00,,,0.00,57.000000,,2013-02-18 20:21:00,
2013-02-18 11:53:00,-14.0,-24.0,-100.00,NNE,23,0.0,0.0,61,0.00,,,0.00,152.000000,,2013-02-18 20:53:00,
2013-02-18 12:02:00,-14.0,-24.0,-100.00,NNE,23,0.0,0.0,61,0.00,,,0.00,152.000000,,2013-02-18 21:02:00,
2013-02-18 12:11:00,-14.0,-24.0,-100.00,NNE,23,0.0,0.0,61,0.00,,,0.00,152.000000,,2013-02-18 21:11:00,
2013-02-18 12:21:00,-14.0,-24.0,-100.00,NNE,23,0.0,0.0,61,0.00,,,0.00,152.000000,,2013-02-18 21:21:00,
2013-02-18 12:53:00,-9.0,-21.0,-100.00,WSW,241,0.0,0.0,53,0.00,,,0.00,209.000000,,2013-02-18 21:53:00,
2013-02-18 13:02:00,-9.0,-21.0,-100.00,WSW,241,0.0,0.0,53,0.00,,,0.00,209.000000,,2013-02-18 22:02:00,
2013-02-18 13:12:00,-9.0,-21.0,-100.00,WSW,241,0.0,0.0,53,0.00,,,0.00,209.000000,,2013-02-18 22:12:00,
2013-02-18 13:22:00,-9.0,-21.0,-100.00,WSW,241,0.0,0.0,53,0.00,,,0.00,209.000000,,2013-02-18 22:22:00,
2013-02-18 13:53:00,-11.0,-22.0,-100.00,WNW,299,0.0,0.0,56,0.00,,,0.00,177.000000,,2013-02-18 22:53:00,
2013-02-18 14:02:00,-11.0,-22.0,-100.00,WNW,299,0.0,0.0,56,0.00,,,0.00,177.000000,,2013-02-18 23:02:00,
2013-02-18 14:11:00,-11.0,-22.0,-100.00,WNW,299,0.0,0.0,56,0.00,,,0.00,177.000000,,2013-02-18 23:11:00,
2013-02-18 14:22:00,-11.0,-22.0,-100.00,WNW,299,0.0,0.0,56,0.00,,,0.00,177.000000,,2013-02-18 23:22:00,
2013-02-18 14:53:00,-11.0,-20.0,-100.00,NW,320,0.0,0.0,62,0.00,,,0.00,142.000000,,2013-02-18 23:53:00,
2013-02-18 15:02:00,-11.0,-20.0,-100.00,NW,320,0.0,0.0,62,0.00,,,0.00,142.000000,,2013-02-19 00:02:00,
2013-02-18 15:12:00,-11.0,-20.0,-100.00,NW,320,0.0,0.0,62,0.00,,,0.00,142.000000,,2013-02-19 00:12:00,
2013-02-18 15:22:00,-11.0,-20.0,-100.00,NW,320,0.0,0.0,62,0.00,,,0.00,142.000000,,2013-02-19 00:22:00,
2013-02-18 15:54:00,-8.0,-18.0,-100.00,West,281,0.0,0.0,60,0.00,,,0.00,145.000000,,2013-02-19 00:54:00,
2013-02-18 16:03:00,-8.0,-18.0,-100.00,West,281,0.0,0.0,60,0.00,,,0.00,145.000000,,2013-02-19 01:03:00,
2013-02-18 16:13:00,-8.0,-18.0,-100.00,West,281,0.0,0.0,60,0.00,,,0.00,145.000000,,2013-02-19 01:13:00,
2013-02-18 16:22:00,-8.0,-18.0,-100.00,West,281,0.0,0.0,60,0.00,,,0.00,145.000000,,2013-02-19 01:22:00,
2013-02-18 17:02:00,-8.0,-20.0,-100.00,WNW,291,0.0,0.0,54,0.00,,,0.00,106.000000,,2013-02-19 02:02:00,
2013-02-18 17:12:00,-8.0,-20.0,-100.00,WNW,291,0.0,0.0,54,0.00,,,0.00,106.000000,,2013-02-19 02:12:00,
2013-02-18 17:22:00,-8.0,-20.0,-100.00,WNW,291,0.0,0.0,54,0.00,,,0.00,106.000000,,2013-02-19 02:22:00,
2013-02-18 18:13:00,-15.0,-25.0,-100.00,SW,234,0.0,0.0,60,0.00,,,0.00,35.000000,,2013-02-19 03:13:00,
2013-02-18 18:22:00,-15.0,-25.0,-100.00,SW,234,0.0,0.0,60,0.00,,,0.00,35.000000,,2013-02-19 03:22:00,
2013-02-18 18:54:00,-21.0,-29.0,-100.00,North,0,0.0,0.0,65,0.00,,,0.00,2.000000,,2013-02-19 03:54:00,
2013-02-18 19:02:00,-21.0,-29.0,-100.00,North,0,0.0,0.0,65,0.00,,,0.00,2.000000,,2013-02-19 04:02:00,
2013-02-18 19:13:00,-21.0,-29.0,-100.00,North,0,0.0,0.0,65,0.00,,,0.00,2.000000,,2013-02-19 04:13:00,
2013-02-18 19:22:00,-21.0,-29.0,-100.00,North,0,0.0,0.0,65,0.00,,,0.00,2.000000,,2013-02-19 04:22:00,
2013-02-18 19:54:00,-25.0,-33.0,-100.00,North,3,0.0,0.0,64,0.00,,,0.00,0.000000,,2013-02-19 04:54:00,
2013-02-18 20:02:00,-25.0,-33.0,-100.00,North,3,0.0,0.0,64,0.00,,,0.00,0.000000,,2013-02-19 05:02:00,
2013-02-18 20:12:00,-25.0,-33.0,-100.00,North,3,0.0,0.0,64,0.00,,,0.00,0.000000,,2013-02-19 05:12:00,
2013-02-18 20:22:00,-25.0,-33.0,-100.00,North,3,0.0,0.0,64,0.00,,,0.00,0.000000,,2013-02-19 05:22:00,
2013-02-18 20:52:00,-29.0,-38.0,-100.00,East,101,0.0,0.0,59,0.00,,,0.00,0.000000,,2013-02-19 05:52:00,
2013-02-18 21:02:00,-29.0,-38.0,-100.00,East,101,0.0,0.0,59,0.00,,,0.00,0.000000,,2013-02-19 06:02:00,
2013-02-18 21:52:00,-31.0,-39.0,-100.00,ESE,102,0.0,0.0,62,0.00,,,0.00,0.000000,,2013-02-19 06:52:00,
2013-02-18 22:01:00,-31.0,-39.0,-100.00,ESE,102,0.0,0.0,62,0.00,,,0.00,0.000000,,2013-02-19 07:01:00,
2013-02-18 22:52:00,-33.0,-42.0,-100.00,ENE,64,0.0,0.0,58,-99.99,,,0.00,0.000000,,2013-02-19 07:52:00,
2013-02-18 23:01:00,-33.0,-42.0,-100.00,ENE,64,0.0,0.0,58,-99.99,,,0.00,0.000000,,2013-02-19 08:01:00,
2013-02-18 23:52:00,-999.0,-99.9,-100.00,ENE,67,0.0,0.0,60,0.00,,,0.00,0.000000,,2013-02-19 08:52:00,